Weather History for Augusta, GA

Change the Weather History Date:

Saturday, February 16, 2013

  Actual Average Record
Temperature  
Mean Temperature 42 °F -  
Max Temperature 50 °F 58 °F 75 °F (2001)
Min Temperature 33 °F 40 °F 30 °F (2003)
Degree Days  
Heating Degree Days 23    
Month to date heating degree days 239  
Moisture  
Dew Point 30 °F    
Average Humidity 68    
Maximum Humidity 86    
Minimum Humidity 25    
Precipitation  
Precipitation 0.11 in - - ()
Month to date precipitation 5.52  
Year to date precipitation 6.58  
Sea Level Pressure  
Sea Level Pressure 29.97 in    
Wind  
Wind Speed 9 mph (WNW)    
Max Wind Speed 22 mph    
Max Gust Speed 30 mph    
Visibility 9 miles    
Events Rain    
Averages and records for this station are not official NWS values.
T = Trace of Precipitation, MM = Missing Value Source: NWS Daily Summary

Daily Weather History Graph

Daily Weather History Graph

Search for Another Location

Airport:

Trip Planner

Search our weather history database for the weather conditions in past years. The results will help you decide how hot, cold, wet, or windy it might be!

Date:

Astronomy

Feb. 16, 2013 Rise Set
Actual Time 7:10 AM EST 6:13 PM EST
Civil Twilight 6:45 AM EST 6:39 PM EST
Nautical Twilight 6:16 AM EST 7:08 PM EST
Astronomical Twilight 5:47 AM EST 7:37 PM EST
Moon 10:44 AM EST (2/16) No Moon Set
Length of Visible Light 11h 53m
Length of Day
11h 03m
Waxing Crescent, 39% of the Moon is Illuminated
Feb 16
Waxing Crescent
Feb 17
First Quarter
Feb 25
Full
Mar 4
Last Quarter
Mar 11
New

Hourly Weather History & Observations

Time (EST) Temp. Windchill Dew Point Humidity Pressure Visibility Wind Dir Wind Speed Gust Speed Precip Events Conditions
12:53 AM 48.0 °F - 33.1 °F 56% 29.97 in 10.0 mi WNW 3.5 mph - N/A   Clear
1:53 AM 46.9 °F - 34.0 °F 61% 29.96 in 10.0 mi NW 4.6 mph - N/A   Clear
2:53 AM 45.0 °F 41.8 °F 35.1 °F 68% 29.95 in 10.0 mi NNW 5.8 mph - N/A   Mostly Cloudy
3:53 AM 44.1 °F 40.1 °F 36.0 °F 73% 29.93 in 10.0 mi NNW 6.9 mph - N/A   Overcast
4:53 AM 45.0 °F 40.6 °F 35.1 °F 68% 29.93 in 10.0 mi NNW 8.1 mph - N/A   Overcast
5:53 AM 44.1 °F 39.0 °F 34.0 °F 68% 29.94 in 10.0 mi NNW 9.2 mph - N/A   Overcast
6:53 AM 43.0 °F 37.2 °F 34.0 °F 71% 29.94 in 10.0 mi North 10.4 mph - 0.00 in Rain Light Rain
7:53 AM 42.1 °F 37.7 °F 35.1 °F 76% 29.95 in 10.0 mi NNW 6.9 mph - 0.00 in   Overcast
8:27 AM 41.0 °F 35.8 °F 37.4 °F 87% 29.98 in 4.0 mi WNW 8.1 mph - 0.02 in Rain Rain
8:35 AM 41.0 °F 35.8 °F 37.4 °F 87% 29.99 in 4.0 mi WNW 8.1 mph 16.1 mph 0.03 in Rain Light Rain
8:53 AM 41.0 °F 34.7 °F 37.9 °F 89% 29.99 in 6.0 mi NW 10.4 mph - 0.05 in Rain Rain
9:05 AM 39.2 °F 33.0 °F 37.4 °F 93% 29.98 in 8.0 mi NNW 9.2 mph - 0.01 in Rain Light Rain
9:31 AM 39.2 °F 33.6 °F 37.4 °F 93% 29.98 in 10.0 mi WNW 8.1 mph - 0.03 in Rain Light Rain
9:41 AM 39.2 °F 32.0 °F 37.4 °F 93% 29.99 in 8.0 mi WNW 11.5 mph - 0.03 in Rain Light Rain
9:48 AM 39.2 °F 30.8 °F 37.4 °F 93% 29.99 in 7.0 mi WNW 15.0 mph 20.7 mph 0.04 in Rain Light Rain
9:53 AM 39.9 °F 33.9 °F 36.0 °F 86% 29.99 in 7.0 mi NW 9.2 mph 20.7 mph 0.05 in Rain Rain
10:00 AM 39.2 °F 34.2 °F 35.6 °F 87% 29.98 in 10.0 mi NW 6.9 mph - 0.00 in Rain Light Rain
10:25 AM 39.2 °F - 37.4 °F 93% 29.99 in 10.0 mi Calm Calm - 0.01 in Rain Light Rain
10:53 AM 41.0 °F - 37.0 °F 86% 29.97 in 10.0 mi Calm Calm - 0.01 in   Overcast
11:10 AM 41.0 °F - 37.4 °F 87% 29.98 in 10.0 mi Calm Calm - N/A   Overcast
11:19 AM 41.0 °F 39.0 °F 37.4 °F 87% 29.98 in 10.0 mi SW 3.5 mph - N/A   Overcast
11:41 AM 41.0 °F 39.0 °F 37.4 °F 87% 29.97 in 10.0 mi SSW 3.5 mph - N/A   Overcast
11:53 AM 41.0 °F 39.0 °F 37.0 °F 86% 29.96 in 10.0 mi SW 3.5 mph - N/A   Overcast
12:13 PM 42.8 °F 41.1 °F 37.4 °F 81% 29.94 in 10.0 mi SSW 3.5 mph - N/A   Overcast
12:20 PM 42.8 °F 39.3 °F 37.4 °F 81% 29.94 in 10.0 mi SW 5.8 mph - N/A   Overcast
12:31 PM 42.8 °F - 37.4 °F 81% 29.93 in 10.0 mi Calm Calm - N/A   Mostly Cloudy
12:53 PM 43.0 °F 39.5 °F 35.1 °F 74% 29.92 in 10.0 mi SW 5.8 mph - N/A   Mostly Cloudy
1:53 PM 46.9 °F - 33.1 °F 59% 29.89 in 10.0 mi Variable 4.6 mph - N/A   Mostly Cloudy
2:53 PM 46.9 °F - 25.0 °F 42% 29.86 in 10.0 mi West 11.5 mph 23.0 mph N/A   Partly Cloudy
3:53 PM 46.9 °F - 17.1 °F 30% 29.87 in 10.0 mi WNW 13.8 mph 24.2 mph N/A   Partly Cloudy
4:53 PM 46.0 °F 41.0 °F 12.0 °F 25% 29.88 in 10.0 mi West 10.4 mph 28.8 mph N/A   Scattered Clouds
5:53 PM 44.1 °F 36.8 °F 12.0 °F 27% 29.93 in 10.0 mi WNW 16.1 mph 27.6 mph N/A   Scattered Clouds
6:53 PM 41.0 °F 32.2 °F 10.9 °F 29% 29.98 in 10.0 mi WNW 18.4 mph 29.9 mph 0.00 in Rain Light Rain
7:53 PM 39.0 °F 31.4 °F 10.9 °F 32% 30.01 in 10.0 mi WNW 12.7 mph 27.6 mph 0.00 in   Clear
8:53 PM 37.0 °F 27.0 °F 10.0 °F 33% 30.04 in 10.0 mi WNW 18.4 mph 24.2 mph N/A   Clear
9:53 PM 36.0 °F 29.6 °F 12.0 °F 37% 30.07 in 10.0 mi WNW 8.1 mph 17.3 mph N/A   Clear
10:53 PM 35.1 °F 27.4 °F 12.0 °F 39% 30.09 in 10.0 mi WNW 10.4 mph 19.6 mph N/A   Clear
11:53 PM 33.1 °F 26.1 °F 12.0 °F 42% 30.09 in 10.0 mi WNW 8.1 mph - N/A   Clear